Location: Unspecified
(49.2170°N, 0.0000°E)
Time: 00:28:32
(UTC+00:00)

Transit 4A - Pass Details

Date: 18 June 2019
Orbit: 862 x 982 km, 66.8° (Epoch: 21 July)

Event Time Altitude Azimuth Distance (km) Brightness Sun altitude
Rises 15:34:46 0° 322° (NW) 3,697 11.3 41.2°
Reaches altitude 10° 15:37:47 10° 334° (NNW) 2,746 10.6 40.7°
Maximum altitude 15:43:13 28° 31° (NNE) 1,754 9.3 39.8°
Drops below altitude 10° 15:48:36 10° 89° (E) 2,707 10.0 38.9°
Sets 15:51:32 0° 101° (ESE) 3,636 10.5 38.5°
